Location: Newark
(42.4678°N, 122.8017°W)
Time: 22:43:23
(UTC+00:00)

N. Korean satellite - Pass Details

Date: 05 October 2020
Orbit: 452 x 505 km, 97.2° (Epoch: 28 October)

Event Time Altitude Azimuth Distance (km) Brightness Sun altitude
Rises 13:30:12 0° 16° (NNE) 2,552 10.5 -8.8°
Reaches altitude 10° 13:32:20 10° 21° (NNE) 1,658 9.6 -8.4°
Maximum altitude 13:35:49 54° 100° (E) 582 7.4 -7.8°
Drops below altitude 10° 13:39:13 10° 178° (S) 1,614 9.3 -7.1°
Sets 13:41:16 0° 183° (S) 2,477 10.1 -6.8°
